| time (UTC) | temp F | wind direction | speed MPH | gust MPH | rain 1hr in | rain 24hr in | rain mn in | humidity % | barometer mb |
| 20260502151821 | 52 | 59 | 2.0 | 6.0 | 0.00 | 0.00 | 0.00 | 50 | 1016.7 |
| 20260502150921 | 53 | 96 | 1.0 | 6.0 | 0.00 | 0.00 | 0.00 | 53 | 1016.7 |
| 20260502123641 | 48 | 115 | 1.0 | 4.0 | 0.00 | 0.00 | 0.00 | 58 | 1016.5 |
| 20260502122720 | 48 | 239 | 1.0 | 5.0 | 0.00 | 0.00 | 0.00 | 57 | 1016.7 |
| 20260502121820 | 48 | 1 | 1.0 | 7.0 | 0.00 | 0.00 | 0.00 | 54 | 1016.8 |
| 20260502120920 | 48 | 254 | 1.0 | 6.0 | 0.00 | 0.00 | 0.00 | 54 | 1016.7 |
| 20260502115420 | 48 | 254 | 0.0 | 5.0 | 0.00 | 0.00 | 0.00 | 62 | 1016.5 |
| 20260502114520 | 48 | 244 | 0.0 | 1.0 | 0.00 | 0.00 | 0.00 | 57 | 1016.5 |
| 20260502113620 | 48 | 241 | 0.0 | 2.0 | 0.00 | 0.00 | 0.00 | 62 | 1016.3 |
| 20260502112720 | 48 | 254 | 0.0 | 2.0 | 0.00 | 0.00 | 0.00 | 54 | 1016.1 |
| 20260502111820 | 48 | 260 | 0.0 | 1.0 | 0.00 | 0.00 | 0.00 | 56 | 1016.2 |
| 20260502110920 | 48 | 274 | 1.0 | 3.0 | 0.00 | 0.00 | 0.00 | 58 | 1016.3 |
| 20260502110041 | 48 | 52 | 1.0 | 4.0 | 0.00 | 0.00 | 0.00 | 54 | 1016.2 |
| 20260502105420 | 48 | 263 | 0.0 | 3.0 | 0.00 | 0.00 | 0.00 | 54 | 1016.1 |
| 20260502104520 | 48 | 218 | 1.0 | 4.0 | 0.00 | 0.00 | 0.00 | 52 | 1016.1 |
| 20260502103620 | 48 | 213 | 1.0 | 5.0 | 0.00 | 0.00 | 0.00 | 49 | 1016.2 |
| 20260502101826 | 49 | 290 | 1.0 | 4.0 | 0.00 | 0.00 | 0.00 | 47 | 1016.2 |
| 20260502100926 | 49 | 275 | 2.0 | 6.0 | 0.00 | 0.00 | 0.00 | 48 | 1016.2 |
| 20260502090946 | 49 | 238 | 1.0 | 7.0 | 0.00 | 0.00 | 0.00 | 56 | 1016.1 |
| 20260502070925 | 51 | 310 | 2.0 | 11.0 | 0.00 | 0.00 | 0.00 | 68 | 1015.6 |
| 20260502070025 | 51 | 239 | 1.0 | 7.0 | 0.00 | 0.00 | 0.00 | 67 | 1015.7 |
| 20260502065425 | 51 | 300 | 1.0 | 5.0 | 0.00 | 0.00 | 0.00 | 66 | 1015.8 |
| 20260502064524 | 51 | 298 | 1.0 | 5.0 | 0.00 | 0.00 | 0.00 | 68 | 1015.7 |
| 20260502063625 | 52 | 4 | 2.0 | 5.0 | 0.00 | 0.00 | 0.00 | 64 | 1015.8 |
| 20260502062745 | 52 | 262 | 1.0 | 5.0 | 0.00 | 0.00 | 0.00 | 64 | 1015.8 |
| 20260502061846 | 52 | 246 | 1.0 | 6.0 | 0.00 | 0.00 | 0.00 | 65 | 1015.9 |
| 20260502060925 | 52 | 242 | 1.0 | 6.0 | 0.00 | 0.00 | 0.00 | 64 | 1015.9 |
| 20260502060024 | 52 | 326 | 1.0 | 3.0 | 0.00 | 0.00 | 0.00 | 64 | 1016.1 |
| 20260502055424 | 52 | 281 | 0.0 | 3.0 | 0.00 | 0.00 | 0.00 | 64 | 1016.1 |
| 20260502054524 | 53 | 301 | 1.0 | 4.0 | 0.00 | 0.00 | 0.00 | 64 | 1015.8 |
| 20260502053624 | 53 | 296 | 0.0 | 5.0 | 0.00 | 0.00 | 0.00 | 63 | 1015.8 |
| 20260502052725 | 53 | 321 | 0.0 | 5.0 | 0.00 | 0.00 | 0.00 | 62 | 1015.8 |
| 20260502051824 | 53 | 12 | 1.0 | 5.0 | 0.00 | 0.00 | 0.00 | 62 | 1015.9 |
| 20260502050924 | 54 | 101 | 1.0 | 5.0 | 0.00 | 0.00 | 0.00 | 63 | 1015.8 |
| 20260502050024 | 54 | 41 | 1.0 | 6.0 | 0.00 | 0.00 | 0.00 | 67 | 1015.9 |
| 20260502045424 | 54 | 117 | 2.0 | 6.0 | 0.00 | 0.00 | 0.00 | 64 | 1015.9 |
| 20260502044524 | 54 | 109 | 0.0 | 3.0 | 0.00 | 0.00 | 0.00 | 68 | 1015.8 |
| 20260502043645 | 54 | 98 | 1.0 | 4.0 | 0.00 | 0.00 | 0.00 | 65 | 1015.8 |
| 20260502042724 | 55 | 50 | 1.0 | 4.0 | 0.00 | 0.00 | 0.00 | 66 | 1015.5 |
| 20260502041824 | 56 | 192 | 2.0 | 7.0 | 0.00 | 0.00 | 0.00 | 65 | 1015.6 |
| 20260502040924 | 56 | 281 | 2.0 | 7.0 | 0.00 | 0.00 | 0.00 | 63 | 1015.7 |
| 20260502040025 | 56 | 340 | 1.0 | 4.0 | 0.00 | 0.00 | 0.00 | 63 | 1015.6 |
| 20260502035424 | 56 | 288 | 1.0 | 4.0 | 0.00 | 0.00 | 0.00 | 63 | 1015.5 |
| 20260502034524 | 56 | 278 | 1.0 | 3.0 | 0.00 | 0.00 | 0.00 | 64 | 1015.5 |
| 20260502033624 | 56 | 316 | 1.0 | 3.0 | 0.00 | 0.00 | 0.00 | 64 | 1015.5 |
| 20260502032724 | 56 | 223 | 0.0 | 2.0 | 0.00 | 0.00 | 0.00 | 64 | 1015.4 |
| 20260502031824 | 57 | 169 | 1.0 | 3.0 | 0.00 | 0.00 | 0.00 | 62 | 1015.2 |
| 20260502030924 | 58 | 230 | 1.0 | 4.0 | 0.00 | 0.00 | 0.00 | 60 | 1015.2 |
| 20260502030024 | 58 | 262 | 1.0 | 3.0 | 0.00 | 0.00 | 0.00 | 59 | 1015.0 |
| 20260502025445 | 58 | 272 | 1.0 | 3.0 | 0.00 | 0.00 | 0.00 | 58 | 1015.2 |
| 20260502024524 | 59 | 273 | 2.0 | 5.0 | 0.00 | 0.00 | 0.00 | 55 | 1015.2 |
| 20260502023623 | 59 | 291 | 2.0 | 6.0 | 0.00 | 0.00 | 0.00 | 54 | 1015.0 |
| 20260502022724 | 59 | 254 | 1.0 | 6.0 | 0.00 | 0.00 | 0.00 | 58 | 1014.6 |
| 20260502021844 | 60 | 261 | 1.0 | 4.0 | 0.00 | 0.00 | 0.00 | 57 | 1014.6 |
| 20260502020923 | 60 | 303 | 1.0 | 4.0 | 0.00 | 0.00 | 0.00 | 58 | 1014.2 |
| 20260502020045 | 60 | 280 | 1.0 | 4.0 | 0.00 | 0.00 | 0.00 | 60 | 1013.9 |
| 20260502015423 | 60 | 307 | 2.0 | 6.0 | 0.00 | 0.00 | 0.00 | 60 | 1013.9 |
| 20260502014523 | 59 | 355 | 2.0 | 6.0 | 0.00 | 0.00 | 0.00 | 61 | 1013.7 |
| 20260502013624 | 59 | 335 | 2.0 | 5.0 | 0.00 | 0.00 | 0.00 | 61 | 1013.6 |
| 20260502012744 | 59 | 349 | 2.0 | 4.0 | 0.00 | 0.00 | 0.00 | 60 | 1013.6 |
| 20260502011824 | 59 | 329 | 2.0 | 6.0 | 0.00 | 0.00 | 0.00 | 60 | 1013.3 |
| 20260502010923 | 59 | 321 | 1.0 | 3.0 | 0.00 | 0.00 | 0.00 | 61 | 1013.2 |
| 20260502010023 | 59 | 329 | 1.0 | 6.0 | 0.00 | 0.00 | 0.00 | 59 | 1013.1 |
| 20260502005423 | 59 | 349 | 1.0 | 3.0 | 0.00 | 0.00 | 0.00 | 61 | 1013.1 |
| 20260502004523 | 60 | 359 | 0.0 | 3.0 | 0.00 | 0.00 | 0.00 | 59 | 1012.8 |
| 20260502003623 | 60 | 309 | 1.0 | 5.0 | 0.00 | 0.00 | 0.00 | 57 | 1012.8 |
| 20260502002744 | 61 | 316 | 2.0 | 5.0 | 0.00 | 0.00 | 0.00 | 56 | 1012.5 |
| 20260502001823 | 61 | 318 | 1.0 | 6.0 | 0.00 | 0.00 | 0.00 | 55 | 1012.4 |
| 20260502000923 | 61 | 323 | 2.0 | 7.0 | 0.00 | 0.00 | 0.00 | 55 | 1012.3 |
| 20260502000023 | 61 | 283 | 1.0 | 5.0 | 0.00 | 0.00 | 0.00 | 54 | 1012.0 |
| 20260501235444 | 61 | 277 | 1.0 | 4.0 | 0.00 | 0.00 | 0.00 | 54 | 1011.8 |
| 20260501234523 | 62 | 305 | 1.0 | 4.0 | 0.00 | 0.00 | 0.00 | 55 | 1011.7 |
| 20260501233623 | 62 | 252 | 1.0 | 4.0 | 0.00 | 0.00 | 0.00 | 53 | 1011.7 |
| 20260501232723 | 63 | 203 | 1.0 | 4.0 | 0.00 | 0.00 | 0.00 | 54 | 1011.6 |
| 20260501231823 | 63 | 240 | 1.0 | 5.0 | 0.00 | 0.00 | 0.00 | 51 | 1011.7 |
| 20260501230923 | 63 | 208 | 2.0 | 5.0 | 0.00 | 0.00 | 0.00 | 51 | 1011.7 |
| 20260501230023 | 64 | 178 | 3.0 | 10.0 | 0.00 | 0.00 | 0.00 | 51 | 1011.7 |
| 20260501225422 | 64 | 172 | 4.0 | 13.0 | 0.00 | 0.00 | 0.00 | 49 | 1011.7 |
| 20260501224522 | 65 | 188 | 3.0 | 7.0 | 0.00 | 0.00 | 0.00 | 48 | 1011.8 |
| 20260501223643 | 66 | 174 | 2.0 | 9.0 | 0.00 | 0.00 | 0.00 | 48 | 1011.7 |
| 20260501222722 | 67 | 169 | 2.0 | 8.0 | 0.00 | 0.00 | 0.00 | 46 | 1011.7 |
| 20260501221822 | 66 | 161 | 3.0 | 10.0 | 0.00 | 0.00 | 0.00 | 46 | 1011.8 |
| 20260501220922 | 66 | 160 | 4.0 | 10.0 | 0.00 | 0.00 | 0.00 | 44 | 1011.8 |
| 20260501220022 | 66 | 171 | 5.0 | 17.0 | 0.00 | 0.00 | 0.00 | 45 | 1011.9 |
| 20260501215443 | 66 | 167 | 5.0 | 17.0 | 0.00 | 0.00 | 0.00 | 46 | 1011.8 |
| 20260501214522 | 66 | 160 | 4.0 | 11.0 | 0.00 | 0.00 | 0.00 | 45 | 1011.9 |
| 20260501213622 | 66 | 163 | 5.0 | 13.0 | 0.00 | 0.00 | 0.00 | 44 | 1012.0 |
| 20260501212722 | 66 | 165 | 6.0 | 15.0 | 0.00 | 0.00 | 0.00 | 44 | 1012.1 |
| 20260501211822 | 66 | 164 | 6.0 | 18.0 | 0.00 | 0.00 | 0.00 | 46 | 1012.2 |
| 20260501210922 | 66 | 162 | 6.0 | 16.0 | 0.00 | 0.00 | 0.00 | 46 | 1012.2 |
| 20260501210022 | 66 | 157 | 4.0 | 11.0 | 0.00 | 0.00 | 0.00 | 45 | 1012.3 |
| 20260501205422 | 66 | 167 | 4.0 | 11.0 | 0.00 | 0.00 | 0.00 | 44 | 1012.4 |
| 20260501204543 | 65 | 160 | 4.0 | 12.0 | 0.00 | 0.00 | 0.00 | 47 | 1012.4 |
| 20260501203622 | 65 | 183 | 3.0 | 9.0 | 0.00 | 0.00 | 0.00 | 45 | 1012.5 |
| 20260501202743 | 65 | 166 | 4.0 | 12.0 | 0.00 | 0.00 | 0.00 | 49 | 1012.8 |
| 20260501201843 | 65 | 169 | 4.0 | 15.0 | 0.00 | 0.00 | 0.00 | 47 | 1012.9 |
| 20260501200922 | 66 | 166 | 4.0 | 11.0 | 0.00 | 0.00 | 0.00 | 44 | 1013.0 |
| 20260501200022 | 65 | 168 | 5.0 | 16.0 | 0.00 | 0.00 | 0.00 | 47 | 1013.2 |
| 20260501195422 | 66 | 172 | 5.0 | 16.0 | 0.00 | 0.00 | 0.00 | 46 | 1013.2 |
| 20260501194522 | 67 | 175 | 4.0 | 10.0 | 0.00 | 0.00 | 0.00 | 43 | 1013.4 |
| 20260501193622 | 67 | 165 | 3.0 | 9.0 | 0.00 | 0.00 | 0.00 | 42 | 1013.6 |
| 20260501192722 | 67 | 169 | 3.0 | 11.0 | 0.00 | 0.00 | 0.00 | 42 | 1013.8 |
| 20260501191822 | 68 | 158 | 3.0 | 11.0 | 0.00 | 0.00 | 0.00 | 40 | 1013.8 |
| 20260501190921 | 68 | 173 | 3.0 | 10.0 | 0.00 | 0.00 | 0.00 | 41 | 1014.1 |
| 20260501190022 | 68 | 201 | 2.0 | 6.0 | 0.00 | 0.00 | 0.00 | 41 | 1014.2 |
| 20260501185421 | 67 | 191 | 2.0 | 6.0 | 0.00 | 0.00 | 0.00 | 45 | 1014.2 |
| 20260501184521 | 66 | 168 | 4.0 | 10.0 | 0.00 | 0.00 | 0.00 | 41 | 1014.4 |
| 20260501183621 | 66 | 169 | 4.0 | 12.0 | 0.00 | 0.00 | 0.00 | 45 | 1014.4 |
| 20260501182722 | 67 | 171 | 3.0 | 8.0 | 0.00 | 0.00 | 0.00 | 48 | 1014.6 |
| 20260501181821 | 66 | 178 | 3.0 | 11.0 | 0.00 | 0.00 | 0.00 | 43 | 1014.8 |
| 20260501180922 | 66 | 168 | 3.0 | 9.0 | 0.00 | 0.00 | 0.00 | 45 | 1015.0 |
| 20260501180021 | 66 | 170 | 4.0 | 13.0 | 0.00 | 0.00 | 0.00 | 43 | 1015.2 |
| 20260501175421 | 66 | 175 | 3.0 | 8.0 | 0.00 | 0.00 | 0.00 | 42 | 1015.2 |
| 20260501174542 | 66 | 172 | 2.0 | 6.0 | 0.00 | 0.00 | 0.00 | 45 | 1015.3 |
| 20260501173621 | 64 | 158 | 3.0 | 8.0 | 0.00 | 0.00 | 0.00 | 46 | 1015.3 |
| 20260501172721 | 64 | 184 | 3.0 | 7.0 | 0.00 | 0.00 | 0.00 | 46 | 1015.6 |
| 20260501171821 | 64 | 142 | 3.0 | 11.0 | 0.00 | 0.00 | 0.00 | 45 | 1015.8 |
| 20260501170921 | 64 | 170 | 3.0 | 8.0 | 0.00 | 0.00 | 0.00 | 51 | 1016.0 |
| 20260501170021 | 63 | 165 | 3.0 | 10.0 | 0.00 | 0.00 | 0.00 | 52 | 1016.2 |
| 20260501165421 | 62 | 173 | 4.0 | 14.0 | 0.00 | 0.00 | 0.00 | 50 | 1016.3 |
| 20260501164521 | 63 | 167 | 3.0 | 9.0 | 0.00 | 0.00 | 0.00 | 47 | 1016.4 |
| 20260501163642 | 61 | 157 | 4.0 | 11.0 | 0.00 | 0.00 | 0.00 | 47 | 1016.5 |
| 20260501162721 | 60 | 155 | 4.0 | 15.0 | 0.00 | 0.00 | 0.00 | 50 | 1016.7 |
| 20260501161821 | 61 | 149 | 3.0 | 10.0 | 0.00 | 0.00 | 0.00 | 50 | 1016.9 |
| 20260501160921 | 61 | 162 | 2.0 | 6.0 | 0.00 | 0.00 | 0.00 | 49 | 1016.9 |
| 20260501160021 | 61 | 158 | 3.0 | 9.0 | 0.00 | 0.00 | 0.00 | 50 | 1017.2 |
| 20260501155421 | 60 | 142 | 2.0 | 9.0 | 0.00 | 0.00 | 0.00 | 45 | 1017.2 |